User: anonymous   Login
Location: Caltech
(34.1382°N, 118.1253°W)
Time: 13:29:15
(UTC-07:00)
Language:

SL-16 R/B - Orbit

View from above orbital plane
View from above orbital plane
View from above satellite
View from above satellite

Ground track
Ground track

The orbit data is extracted from the following two-line orbital elements,

1 31793U 07029B   14297.13557297 -.00000151  00000-0 -54119-4 0  1066
2 31793 070.9765 260.3268 0002512 269.6410 166.4081 14.14291196377982
Epoch (UTC): 24 October 2014 03:15:13
Eccentricity: 0.0002512
inclination: 70.9765°
perigee height: 843 km
apogee height: 846 km
right ascension of ascending node: 260.3268°
argument of perigee: 269.6410°
revolutions per day: 14.14291196
mean anomaly at epoch: 166.4081°
orbit number at epoch: 37798

The dashed part of the orbit path shows where the satellite is in the earth's shadow,  

DLR